[[{"header":{"parameterUnit":"m.s-1","parameterCategory":1,"la1":30.2991,"la2":30.254,"lo1":-89.0895,"lo2":-89.0444,"dy":0.0017,"dx":0.0017,"nx":28,"ny":28,"refTime":"2024-05-31T21:00:00:Z","depth":0,"parameterNumber":2,"parameterNumberName":"U-component_of_WINDS"},"data":[0,0,0,0,0,0,0,0,0,0,0,0,0,0,0,0,0,0,0,0,0,0,0,0,0,0,0,0,0,0,0,0,0,0,0,0,0,0,0,0,0,0,0,0,0,0,0,0,0,0,0,0,0,0,0,0,0,0,-0.9841,-0.9843,0,-1.0006,-1.0008,-1.0009,-1.0085,-1.0085,-1.0084,-1.0084,-1.0256,-1.0261,-1.0265,0,0,0,0,0,0,0,0,0,0,0,0,0,-0.9593,-0.9597,-0.9841,-0.9843,-0.9845,-1.0005,-1.0008,-1.001,-1.0085,-1.0085,-1.0084,-1.0084,-1.0255,-1.026,-1.0266,0,0,0,0,0,0,0,0,0,0,0,0,0,-0.9723,-0.9598,-0.984,-0.9901,-0.9909,-1.0005,-1.0008,-1.0011,-1.0085,-1.0085,-1.0084,-1.0084,-1.0253,-1.026,-1.0267,-1.0316,0,0,-1.0288,-1.0291,0,0,0,0,0,0,0,0,-0.9716,-0.9732,-0.989,-0.9897,-0.9906,-1.0024,-0.9983,-1.0113,-1.0085,-1.0018,-1.0084,-1.0084,-1.0179,-1.0193,-1.0224,-1.0324,-1.0331,-1.0289,-1.0293,-1.0296,-1.0298,0,0,0,0,0,0,0,-0.9707,-0.9726,-0.9906,-0.9893,-0.9902,-0.9921,-0.994,-1.0008,-1.0098,-1.0024,-1.003,-1.0048,-1.0184,-1.0217,-1.0229,-1.0334,-1.0289,-1.0295,-1.03,-1.0302,-1.0481,-1.0482,0,0,0,0,0,0,-0.9687,-0.9718,-0.9901,-0.9911,-0.9808,-0.9926,-0.9946,-0.9987,-1.0098,-1.0114,-1.0048,-1.0051,-1.0205,-1.022,-1.0235,-1.03,-1.0296,-1.0303,-1.0307,-1.0481,-1.0481,-1.0482,0,0,0,0,0,0,-0.9682,-0.9703,-0.9894,-0.9816,-0.9842,-0.9931,-0.9975,-0.999,-1.0024,-1.0116,-1.0133,-1.0066,-1.0206,-1.0225,-1.0295,-1.0307,-1.0306,-1.0313,-1.048,-1.0481,-1.0482,-1.0429,0,0,0,0,0,0,-0.9674,-0.97,-0.9719,-0.9816,-0.9846,-0.995,-0.9976,-0.9993,-1.0035,-1.0041,-1.0137,-1.0153,-1.0207,-1.0284,-1.0302,-1.0316,-1.0318,-1.048,-1.0481,-1.0481,-1.043,-1.0428,-1.0426,0,0,0,0,0,-0.9665,-0.9699,-0.972,-0.9742,-0.9871,-0.9951,-0.9968,-1.0029,-1.0036,-1.0056,-1.0115,-1.015,-1.0302,-1.029,-1.0311,-1.0328,-1.0479,-1.048,-1.0481,-1.0431,-1.0428,-1.0426,0,0,0,0,0,0,-0.9603,-0.9713,-0.9737,-0.9803,-0.9867,-0.9963,-0.9991,-1.0024,-1.0088,-1.009,-1.0164,-1.0185,-1.0248,-1.0295,-1.028,-1.0381,-1.0394,-1.0399,-1.0348,-1.0346,-1.0344,-1.0332,-1.0324,0,0,0,0,0,-0.9596,-0.9651,-0.9744,-0.9793,-0.9824,-0.9901,-0.9938,-0.9979,-1.0049,-1.0077,-1.0141,-1.0208,-1.0271,-1.0311,-1.0375,-1.0437,-1.0459,-1.0459,-1.0457,-1.0454,-1.0459,-1.0495,-1.0496,-1.0486,-1.0486,-1.0486,0,0,-0.9584,-0.9651,-0.9681,-0.9782,-0.9837,-0.9892,-0.9924,-0.9981,-1.0024,-1.0086,-1.0155,-1.0205,-1.0284,-1.035,-1.0383,-1.0392,-1.0466,-1.0456,-1.0453,-1.0459,-1.0496,-1.0497,-1.0498,-1.0486,-1.0486,-1.0486,0,0,-0.9591,-0.9646,-0.9693,-0.9746,-0.9828,-0.9879,-0.989,-0.9981,-1.0016,-1.0087,-1.0134,-1.0186,-1.0293,-1.0348,-1.039,-1.0415,-1.0449,-1.0434,-1.0423,-1.0458,-1.0459,-1.046,-1.0469,-1.0472,-1.0437,-1.0437,-1.0437,0,-0.9566,-0.965,-0.9713,-0.9768,-0.9811,-0.9868,-0.9917,-0.9966,-1.0064,-1.0093,-1.0101,-1.0236,-1.0294,-1.0373,-1.0379,-1.0411,-1.0426,-1.0424,-1.0453,-1.0455,-1.0457,-1.0467,-1.047,-1.0435,-1.0435,-1.0435,-1.0436,0,-0.9616,-0.9674,-0.9702,-0.9794,-0.984,-0.9891,-0.9962,-1.0001,-1.0038,-1.0088,-1.016,-1.0231,-1.0309,-1.0331,-1.0368,-1.0416,-1.0419,-1.0439,-1.0453,-1.0455,-1.0465,-1.047,-1.0431,-1.0432,-1.0433,-1.0434,0,0,-0.9589,-0.9713,-0.9723,-0.9765,-0.9858,-0.9905,-0.9958,-1.0034,-1.0066,-1.0132,-1.0179,-1.0268,-1.0287,-1.0334,-1.0378,-1.0408,-1.0424,-1.0425,-1.0428,-1.0423,-1.0482,-1.0466,-1.0469,-1.0447,-1.0448,-1.0449,-1.0475,0,-0.9608,-0.9706,-0.9763,-0.9838,-0.9892,-0.9947,-0.9994,-1.0057,-1.0105,-1.0159,-1.0213,-1.0275,-1.0295,-1.0324,-1.0356,-1.0415,-1.0437,-1.0414,-1.0493,-1.0495,-1.0471,-1.0475,-1.0459,-1.048,-1.048,-1.048,-1.0481,0,-0.9644,-0.9707,-0.9786,-0.9873,-0.9898,-0.9939,-1.0012,-1.0063,-1.0135,-1.0168,-1.022,-1.0264,-1.0323,-1.0332,-1.0415,-1.0398,-1.0434,-1.0468,-1.047,-1.048,-1.0488,-1.0486,-1.0489,-1.0492,-1.0488,-1.0487,-1.0487,0,-0.9616,-0.9721,-0.9782,-0.9816,-0.9919,-0.9946,-0.999,-1.0062,-1.0104,-1.0168,-1.0196,-1.0267,-1.0306,-1.036,-1.0422,-1.0423,-1.05,-1.0513,-1.053,-1.0528,-1.0544,-1.0542,-1.0553,-1.0566,-1.0565,-1.0565,-1.0565,0,-0.9632,-0.9679,-0.9771,-0.9808,-0.9862,-0.9928,-0.9979,-1.0028,-1.0092,-1.014,-1.0192,-1.0237,-1.0315,-1.037,-1.0419,-1.0481,-1.0498,-1.0527,-1.054,-1.0523,-1.0519,-1.0548,-1.0548,-1.0566,-1.0566,-1.0566,-1.0566,0,-0.9611,-0.9674,-0.9744,-0.9835,-0.9859,-0.9894,-0.9973,-1.0012,-1.0062,-1.0123,-1.0141,-1.0221,-1.0288,-1.0354,-1.0445,-1.0478,-1.0539,-1.0555,-1.0514,-1.0521,-1.0533,-1.0531,-1.0563,-1.0571,-1.0577,-1.0577,-1.0577,0,-0.9617,-0.9654,-0.9748,-0.9783,-0.9826,-0.9883,-0.9925,-0.9991,-1.0033,-1.0118,-1.0147,-1.0217,-1.0277,-1.0381,-1.0448,-1.0518,-1.0537,-1.0543,-1.0548,-1.053,-1.0538,-1.0535,-1.0539,-1.0541,-1.0541,-1.0541,-1.054,0,-0.9621,-0.965,-0.9709,-0.9778,-0.9826,-0.9884,-0.9944,-0.997,-1.0048,-1.0093,-1.0161,-1.0207,-1.0299,-1.0369,-1.0446,-1.0493,-1.053,-1.0538,-1.0546,-1.0529,-1.0504,-1.0518,-1.0509,-1.0537,-1.0538,-1.0538,-1.0538,-1.0538,-0.9614,-0.965,-0.9721,-0.9784,-0.9836,-0.989,-0.9931,-0.9986,-1.0043,-1.0122,-1.0158,-1.0227,-1.0298,-1.0406,-1.0451,-1.0507,-1.0517,-1.0528,-1.053,-1.0532,-1.0528,-1.0494,-1.0521,-1.0521,-1.0522,-1.0522,-1.0522,0,-0.9622,-0.967,-0.9727,-0.9808,-0.9858,-0.9887,-0.9955,-0.9994,-1.0054,-1.0117,-1.0174,-1.0253,-1.032,-1.0392,-1.0464,-1.0494,-1.0513,-1.0511,-1.051,-1.052,-1.0515,-1.0502,-1.0494,-1.0494,-1.0494,-1.0494,-1.0494,-1.0494,-0.9631,-0.9692,-0.973,-0.9817,-0.9866,-0.9932,-0.9968,-1.0019,-1.0069,-1.0154,-1.021,-1.0255,-1.0322,-1.0399,-1.0463,-1.0482,-1.0507,-1.05,-1.0524,-1.0518,-1.052,-1.0522,-1.051,-1.0504,-1.0504,-1.0524,-1.0524,-1.0524]},{"header":{"parameterUnit":"m.s-1","parameterCategory":1,"la1":30.2991,"la2":30.254,"lo1":-89.0895,"lo2":-89.0444,"dy":0.0017,"dx":0.0017,"nx":28,"ny":28,"refTime":"2024-05-31T21:00:00:Z","depth":0,"parameterNumber":3,"parameterNumberName":"V-component_of_WINDS"},"data":[0,0,0,0,0,0,0,0,0,0,0,0,0,0,0,0,0,0,0,0,0,0,0,0,0,0,0,0,0,0,0,0,0,0,0,0,0,0,0,0,0,0,0,0,0,0,0,0,0,0,0,0,0,0,0,0,0,0,2.6429,2.6429,0,2.638,2.6379,2.6378,2.6397,2.6398,2.6399,2.64,2.6339,2.6336,2.6333,0,0,0,0,0,0,0,0,0,0,0,0,0,2.6531,2.6529,2.6429,2.6429,2.6428,2.638,2.6379,2.6378,2.6397,2.6398,2.64,2.6401,2.634,2.6336,2.6333,0,0,0,0,0,0,0,0,0,0,0,0,0,2.6484,2.6528,2.6429,2.6432,2.6432,2.638,2.6379,2.6378,2.6397,2.6398,2.64,2.6402,2.6341,2.6337,2.6333,2.6272,0,0,2.632,2.6318,0,0,0,0,0,0,0,0,2.6487,2.648,2.6432,2.6432,2.6431,2.6397,2.6392,2.6342,2.6396,2.6409,2.64,2.6403,2.6356,2.6351,2.6337,2.6269,2.6267,2.632,2.6317,2.6315,2.6314,0,0,0,0,0,0,0,2.649,2.6482,2.6409,2.6431,2.6431,2.6432,2.6427,2.6383,2.6373,2.6408,2.641,2.6404,2.6356,2.6341,2.6336,2.6266,2.632,2.6316,2.6314,2.6312,2.6145,2.6143,0,0,0,0,0,0,2.6495,2.6485,2.6411,2.6408,2.6464,2.6429,2.6424,2.6406,2.6374,2.6371,2.6403,2.6405,2.6347,2.634,2.6334,2.626,2.6316,2.6312,2.6309,2.6147,2.6144,2.6142,0,0,0,0,0,0,2.6497,2.6488,2.6413,2.6447,2.6438,2.6425,2.6405,2.6404,2.6389,2.637,2.6367,2.639,2.6348,2.6339,2.6288,2.6258,2.631,2.6306,2.6149,2.6146,2.6143,2.6113,0,0,0,0,0,0,2.65,2.6489,2.6468,2.6446,2.6436,2.6371,2.6403,2.6402,2.6383,2.6386,2.6357,2.6353,2.6349,2.6294,2.6284,2.6254,2.6303,2.6152,2.6148,2.6144,2.6117,2.611,2.6104,0,0,0,0,0,2.6503,2.6459,2.6467,2.6458,2.641,2.6369,2.6363,2.6362,2.6381,2.6358,2.6346,2.6354,2.6264,2.6289,2.6277,2.6245,2.6153,2.6149,2.6145,2.612,2.6111,2.6104,0,0,0,0,0,0,2.6473,2.6456,2.6464,2.6413,2.6393,2.6373,2.6344,2.6352,2.6324,2.6327,2.6323,2.6316,2.6263,2.6249,2.6277,2.6185,2.6211,2.6204,2.6196,2.6187,2.6181,2.6185,2.6299,0,0,0,0,0,2.6462,2.6434,2.6419,2.6374,2.6364,2.6356,2.6338,2.6339,2.6317,2.6307,2.6291,2.6266,2.6232,2.6209,2.6176,2.6115,2.6108,2.6088,2.6081,2.6076,2.6069,2.6034,2.6025,2.6128,2.6128,2.6128,0,0,2.6435,2.6423,2.6404,2.6368,2.6353,2.632,2.6348,2.6313,2.6288,2.6301,2.6252,2.6239,2.6211,2.6154,2.6128,2.6141,2.6039,2.607,2.6066,2.6062,2.6029,2.6019,2.601,2.6125,2.6125,2.6126,0,0,2.6371,2.636,2.6321,2.6306,2.6284,2.6279,2.627,2.6249,2.6242,2.6194,2.6202,2.6171,2.6112,2.6092,2.6074,2.6003,2.6009,2.5992,2.5956,2.5922,2.5914,2.5907,2.588,2.5871,2.5985,2.5985,2.5985,0,2.634,2.6295,2.6299,2.6264,2.6247,2.6261,2.6221,2.6204,2.6171,2.6157,2.6173,2.61,2.6082,2.602,2.6003,2.5988,2.5975,2.5994,2.5916,2.5908,2.5902,2.5876,2.5866,2.5983,2.5984,2.5984,2.5984,0,2.6258,2.6226,2.6198,2.6169,2.6149,2.6111,2.6106,2.6085,2.6088,2.608,2.603,2.6009,2.5972,2.5958,2.5959,2.5896,2.5904,2.5918,2.5943,2.589,2.5865,2.5856,2.5981,2.5981,2.5982,2.5982,0,0,2.6172,2.6148,2.6137,2.6124,2.6101,2.6075,2.6037,2.6005,2.5986,2.5962,2.5928,2.5879,2.5892,2.5871,2.587,2.584,2.5784,2.5857,2.5856,2.5843,2.5711,2.57,2.5688,2.5788,2.5787,2.5785,2.5713,0,2.6105,2.6042,2.6045,2.5984,2.5954,2.5967,2.5933,2.5914,2.5906,2.5876,2.5866,2.5831,2.5851,2.5839,2.581,2.5797,2.5757,2.5802,2.5753,2.5751,2.5759,2.5676,2.5664,2.5597,2.5703,2.5702,2.57,0,2.6018,2.5996,2.5933,2.5915,2.5902,2.5872,2.5843,2.5816,2.5793,2.5789,2.5767,2.577,2.5728,2.5757,2.5697,2.5728,2.5708,2.5698,2.5695,2.5689,2.5722,2.5666,2.5575,2.5565,2.5686,2.5687,2.5688,0,2.596,2.5914,2.587,2.5859,2.5837,2.5816,2.5805,2.5784,2.5765,2.5738,2.5724,2.5692,2.5673,2.5646,2.5639,2.5661,2.5578,2.5607,2.5571,2.5571,2.5552,2.5553,2.5455,2.5542,2.5542,2.5542,2.5542,0,2.5884,2.5844,2.5844,2.5817,2.5773,2.5776,2.573,2.5721,2.5703,2.5672,2.568,2.565,2.5644,2.5612,2.5606,2.5556,2.5548,2.5541,2.5539,2.5539,2.554,2.5525,2.5529,2.5539,2.554,2.554,2.5541,0,2.5811,2.5809,2.5763,2.5747,2.5742,2.571,2.5695,2.5667,2.5661,2.5622,2.5612,2.5601,2.5563,2.5555,2.5509,2.5505,2.5446,2.5449,2.5454,2.5454,2.5418,2.5421,2.5306,2.529,2.5389,2.5388,2.5387,0,2.5761,2.5732,2.5714,2.5696,2.5686,2.5656,2.5637,2.5638,2.5617,2.5589,2.5564,2.5529,2.55,2.5439,2.5424,2.5389,2.5391,2.5353,2.5385,2.5386,2.5388,2.5389,2.5386,2.5346,2.5345,2.5344,2.5343,0,2.5674,2.5675,2.565,2.5624,2.5602,2.5581,2.556,2.5544,2.5542,2.5517,2.5482,2.546,2.5415,2.5378,2.5343,2.5328,2.5334,2.5334,2.5323,2.5322,2.5326,2.5322,2.5436,2.5336,2.5337,2.5337,2.5338,2.5338,2.561,2.5585,2.5569,2.554,2.5525,2.5506,2.548,2.5472,2.5444,2.541,2.5411,2.5371,2.5347,2.5302,2.5285,2.5251,2.5262,2.5247,2.5243,2.5239,2.5235,2.5333,2.5244,2.5245,2.5245,2.5245,2.5245,0,2.5522,2.5513,2.5487,2.546,2.5436,2.5449,2.5427,2.5405,2.5372,2.5351,2.5324,2.5282,2.5246,2.523,2.5194,2.517,2.5172,2.516,2.5161,2.5157,2.5228,2.524,2.516,2.516,2.516,2.516,2.516,2.516,2.5473,2.5431,2.543,2.538,2.537,2.5334,2.532,2.5302,2.5286,2.5239,2.5212,2.5203,2.5183,2.5146,2.5113,2.5109,2.5094,2.5081,2.5078,2.5144,2.5152,2.516,2.5172,2.5078,2.5078,2.501,2.5009,2.5009]}]]